TimeCST,TemperatureF,Dew PointF,Humidity,Sea Level PressureIn,VisibilityMPH,Wind Direction,Wind SpeedMPH,Gust SpeedMPH,PrecipitationIn,Events,Conditions,WindDirDegrees,DateUTC
12:53 AM,62.1,55.0,78,30.24,10.0,East,3.5,-,N/A,,Mostly Cloudy,90,2012-11-11 06:53:00
1:53 AM,61.0,55.0,81,30.23,10.0,ENE,6.9,-,N/A,,Mostly Cloudy,60,2012-11-11 07:53:00
2:53 AM,61.0,54.0,78,30.22,10.0,ENE,6.9,-,N/A,,Overcast,70,2012-11-11 08:53:00
3:53 AM,62.1,55.9,80,30.21,10.0,East,10.4,-,N/A,,Overcast,100,2012-11-11 09:53:00
4:53 AM,63.0,57.0,81,30.24,10.0,East,5.8,-,N/A,,Overcast,80,2012-11-11 10:53:00
5:53 AM,63.0,55.0,75,30.24,10.0,East,10.4,-,N/A,,Overcast,90,2012-11-11 11:53:00
6:53 AM,62.1,54.0,75,30.25,10.0,East,11.5,-,N/A,,Mostly Cloudy,100,2012-11-11 12:53:00
7:53 AM,64.4,57.2,77,30.26,10.0,East,9.2,-,N/A,,Overcast,100,2012-11-11 13:53:00
8:53 AM,66.9,59.0,76,30.29,10.0,East,11.5,-,N/A,,Overcast,100,2012-11-11 14:53:00
9:53 AM,68.0,60.1,76,30.28,10.0,ESE,11.5,-,N/A,,Overcast,110,2012-11-11 15:53:00
10:53 AM,69.8,60.8,73,30.26,10.0,East,11.5,21.9,N/A,,Overcast,100,2012-11-11 16:53:00
11:53 AM,73.9,62.1,66,30.25,10.0,ESE,18.4,25.3,N/A,,Overcast,110,2012-11-11 17:53:00
12:53 PM,73.9,62.1,66,30.23,10.0,ESE,16.1,27.6,N/A,,Mostly Cloudy,120,2012-11-11 18:53:00
1:53 PM,73.0,61.0,66,30.22,10.0,ESE,17.3,29.9,N/A,,Mostly Cloudy,120,2012-11-11 19:53:00
2:53 PM,72.0,60.1,66,30.22,10.0,ESE,13.8,-,N/A,,Clear,120,2012-11-11 20:53:00
3:53 PM,71.1,59.0,66,30.22,10.0,ESE,16.1,-,N/A,,Clear,120,2012-11-11 21:53:00
4:53 PM,69.1,57.9,68,30.21,10.0,ESE,15.0,-,N/A,,Scattered Clouds,120,2012-11-11 22:53:00
5:53 PM,69.1,60.1,73,30.22,10.0,ESE,11.5,-,N/A,,Clear,120,2012-11-11 23:53:00
6:53 PM,69.1,59.0,70,30.22,10.0,SE,12.7,-,N/A,,Clear,130,2012-11-12 00:53:00
7:53 PM,68.0,60.1,76,30.22,10.0,SE,8.1,-,N/A,,Clear,140,2012-11-12 01:53:00
8:53 PM,66.9,61.0,81,30.22,10.0,SE,8.1,-,N/A,,Clear,140,2012-11-12 02:53:00
9:53 PM,69.1,61.0,75,30.22,10.0,SE,9.2,-,N/A,,Clear,140,2012-11-12 03:53:00
10:53 PM,70.0,62.1,76,30.22,10.0,SE,9.2,-,N/A,,Mostly Cloudy,140,2012-11-12 04:53:00
11:53 PM,69.1,61.0,75,30.20,10.0,SSE,8.1,-,N/A,,Clear,150,2012-11-12 05:53:00